Location: Brompton
(51.4000°N, 0.5333°E)
Time: 08:29:33
(UTC+00:00)

Cosmos 2366 rocket - Pass Details

Date: 11 May 2021
Orbit: 955 x 997 km, 82.9° (Epoch: 12 June)

Event Time Altitude Azimuth Distance (km) Brightness Sun altitude
Rises 23:29:23 0° 346° (NNW) 3,652 8.6 -20.3°
Reaches altitude 10° 23:31:56 10° 342° (NNW) 2,705 7.5 -20.3°
Maximum altitude 23:37:51 50° 269° (W) 1,221 4.5 -20.4°
Enters shadow 23:40:39 30° 212° (SSW) 1,673 4.8 -20.4°
